Theta_e
312 312 312 312 312 312 312 312 311 309 309 305 302 303 294 293 291 301 307 308 304 297 288 294 292 290 293 297 296 296 294 293 294 292 293 291 294 291 291 290 288 289 288 288 288 290 287 289 288 290 291 291 295 298 298 298 296 296 293 295 296 304 295 290 292 296 300 305 307 306 307 307 304 304 302 301 299 300 298 295 292 293 293 292 292 290 292
312 312 312 312 312 312 311 311 311 311 309 306 304 297 293 293 294 298 306 306 303 294 286 287 288 292 294 295 294 296 294 293 293 292 293 291 291 290 290 292 293 289 290 289 287 291 284 291 290 289 293 291 298 298 298 298 294 294 292 290 297 290 292 289 285 289 293 297 300 302 305 306 303 302 303 302 303 302 298 299 296 294 293 294 289 286 293
311 311 312 312 312 312 311 311 311 311 311 310 304 295 295 294 298 299 300 305 301 291 293 290 288 290 291 291 290 291 293 295 295 294 292 293 292 291 289 293 292 291 292 290 291 292 290 287 293 293 293 292 298 298 297 298 295 297 299 302 301 293 291 288 283 283 284 286 286 288 295 299 303 304 304 303 302 300 297 294 294 289 295 295 291 289 297
311 311 312 312 312 311 311 311 311 311 311 310 305 300 297 291 285 293 294 298 297 296 298 295 292 291 290 289 291 292 290 294 296 296 294 294 293 291 292 293 293 292 290 289 288 288 292 289 289 290 290 293 295 297 297 297 297 301 304 303 299 292 293 291 289 288 287 291 294 300 302 300 298 302 303 302 302 302 301 296 291 292 291 294 294 297 297
311 311 312 312 311 311 311 311 311 311 311 311 305 302 297 294 288 289 286 292 293 291 293 292 293 290 294 287 290 288 290 292 293 297 291 295 293 292 293 291 289 289 288 288 287 289 288 291 290 289 290 292 294 297 297 297 299 303 300 302 297 293 288 290 291 291 293 295 294 298 300 298 301 301 302 303 302 300 299 297 295 295 294 288 296 299 298
311 311 311 312 312 311 311 311 311 311 310 310 305 294 295 287 292 294 294 286 284 286 288 291 291 294 294 290 293 289 289 290 288 293 295 294 295 289 292 292 291 290 289 288 284 286 287 288 287 292 291 291 293 293 296 296 300 300 297 299 295 290 287 291 292 291 292 293 294 296 298 302 303 303 303 302 303 301 298 298 299 300 296 293 298 300 299
312 312 312 312 311 311 311 311 310 310 309 308 303 294 297 295 295 294 296 288 290 289 290 292 293 291 293 292 291 289 289 288 291 290 291 292 291 294 284 288 290 291 292 290 285 286 283 284 290 290 289 290 290 289 293 297 298 297 294 295 297 292 287 291 293 290 290 292 295 299 301 303 303 303 303 304 303 301 301 300 301 302 299 300 301 301 301
312 312 312 312 312 312 312 311 311 311 309 308 301 298 292 292 292 292 296 294 291 290 291 292 291 289 293 288 290 290 290 288 291 293 291 287 289 294 289 289 290 291 291 289 286 288 289 288 286 290 291 290 292 290 291 291 296 296 293 293 297 292 288 295 291 288 289 294 300 301 305 304 301 302 303 304 304 303 302 301 302 305 304 302 304 303 302
312 312 313 313 312 312 312 311 311 310 309 304 301 299 302 302 303 300 292 288 290 293 292 290 290 288 290 288 291 291 291 290 292 291 294 292 289 290 289 290 290 291 291 290 289 292 291 291 291 292 291 286 294 291 292 294 290 292 291 292 293 293 289 292 290 285 286 294 295 296 303 304 302 301 301 303 302 301 301 299 301 302 301 303 303 301 301
312 312 312 313 312 312 312 312 312 311 309 305 303 298 306 305 306 304 297 287 293 288 290 291 290 286 291 292 292 290 290 293 293 288 295 295 294 293 292 292 290 289 289 288 290 293 293 293 294 295 295 295 294 297 295 296 292 292 291 293 290 291 289 287 287 283 285 292 294 295 299 299 296 298 301 304 306 301 301 302 308 312 308 303 299 301 304
312 312 313 313 312 313 313 313 313 312 310 304 302 301 304 300 298 298 297 287 290 290 289 289 289 292 292 293 291 293 292 293 293 287 288 294 294 296 294 292 289 286 288 292 296 296 296 297 297 297 295 295 294 294 296 296 295 294 292 291 291 292 291 288 289 283 284 289 291 297 295 288 292 304 308 307 307 307 307 309 312 315 316 310 307 305 308
312 312 312 313 313 313 313 313 313 312 309 309 308 304 305 306 303 299 293 286 288 290 288 286 289 291 290 292 292 291 291 292 292 295 290 292 294 296 294 293 291 285 294 298 298 298 298 299 297 297 296 295 295 295 294 293 294 297 297 292 290 290 290 287 289 284 284 289 295 296 288 291 306 308 309 309 311 315 313 313 315 315 317 317 315 309 309
312 312 312 313 313 313 313 313 313 313 311 310 308 303 308 309 302 298 294 289 286 289 288 289 293 292 292 292 291 292 294 295 295 295 294 293 292 294 296 293 291 293 299 296 297 295 291 289 291 292 292 294 294 295 294 293 293 294 296 296 292 289 288 289 287 287 289 290 289 286 289 301 306 307 307 309 310 309 313 311 314 316 316 317 315 314 311
312 312 313 313 313 313 313 313 313 313 312 310 307 307 308 307 300 297 294 288 288 291 291 290 292 291 292 292 292 293 294 293 294 294 291 294 292 293 296 297 297 299 299 297 294 292 287 289 284 286 287 290 291 290 292 294 294 294 294 295 295 293 292 289 285 290 285 286 285 289 301 303 303 302 303 304 302 304 305 306 310 315 317 318 317 318 319
312 312 312 313 313 313 313 313 313 313 313 310 309 309 308 308 306 301 299 295 288 292 292 286 290 292 292 292 294 291 290 291 290 289 293 296 294 296 297 298 300 299 298 294 290 290 288 287 282 282 285 284 281 284 294 291 295 296 295 296 296 295 291 292 285 286 290 283 285 289 291 287 295 302 305 308 309 310 311 315 309 316 317 319 319 319 321
312 312 313 313 313 313 313 313 313 313 313 311 310 308 308 309 309 306 300 294 291 285 290 294 295 293 292 292 293 290 288 289 288 289 289 290 293 295 299 300 300 300 298 296 292 289 288 284 282 282 281 283 287 286 285 292 291 295 296 296 295 296 296 293 287 285 286 285 285 287 284 294 300 300 303 306 310 312 313 312 305 315 317 319 320 319 321
312 312 313 313 313 313 313 313 313 313 313 312 308 308 306 311 308 304 300 297 294 289 297 297 297 296 293 291 292 290 293 289 291 286 285 287 291 294 297 299 300 299 297 293 290 287 285 282 285 285 286 289 285 285 291 289 288 290 294 295 294 292 292 292 287 285 286 288 285 284 292 290 299 302 304 306 312 315 311 301 301 314 317 319 320 320 320
312 313 313 313 313 314 314 314 314 313 312 312 310 307 307 312 310 308 302 297 292 292 296 298 296 292 291 292 290 294 296 295 292 294 290 291 292 293 294 296 294 299 301 291 290 283 283 282 281 283 282 291 292 292 282 288 287 288 289 289 289 289 290 291 284 285 287 288 288 292 293 300 303 303 305 309 315 313 301 294 306 318 317 319 321 321 321
312 312 313 313 313 314 314 314 314 313 313 312 311 309 308 310 311 309 303 299 295 289 297 301 301 297 298 300 297 297 297 296 295 288 287 288 291 295 296 296 298 290 296 290 291 286 285 285 289 286 284 287 291 284 290 287 286 292 292 288 288 290 291 294 292 286 285 287 288 288 294 301 304 306 308 313 310 299 298 311 320 320 316 318 320 321 322
312 313 313 313 314 314 314 314 314 314 313 312 310 305 308 312 312 309 303 297 298 295 298 299 300 297 301 297 295 293 294 295 293 290 288 285 293 295 291 286 292 295 291 292 286 290 286 283 285 288 285 286 288 294 289 290 295 292 291 295 291 291 288 285 288 291 290 292 290 288 283 296 305 307 307 311 304 304 313 318 317 319 313 314 318 321 322
313 313 313 313 313 314 314 313 313 313 313 313 310 306 305 311 311 311 309 304 299 294 296 303 303 301 301 300 300 300 297 293 293 290 292 292 295 292 282 284 289 292 287 289 284 285 287 284 287 286 291 289 290 291 285 287 291 296 294 293 294 297 290 288 291 296 287 288 288 288 298 302 307 307 300 307 312 316 316 314 311 315 312 312 314 316 322
313 313 313 313 313 313 313 313 313 313 313 313 311 308 303 308 312 312 311 308 301 297 298 303 304 303 304 304 304 303 302 301 302 301 295 292 293 292 292 296 294 293 293 295 291 290 291 290 292 288 285 289 293 287 290 286 284 291 297 295 288 298 295 298 288 296 293 291 298 302 304 308 311 310 310 312 313 314 316 316 314 312 312 313 312 312 316
313 313 313 313 313 313 313 313 313 313 313 313 311 307 304 307 309 313 310 303 305 305 306 303 304 304 306 306 308 307 306 306 304 303 301 295 291 293 293 292 293 300 298 298 291 290 290 291 288 291 289 292 289 288 291 291 288 291 288 295 294 299 300 302 299 298 302 304 302 304 302 306 309 312 313 311 312 313 316 314 311 314 314 313 311 312 312
312 313 313 313 313 313 313 313 313 313 312 313 311 307 306 308 309 309 307 305 301 295 297 299 295 294 297 299 304 307 307 306 306 305 306 302 291 290 294 298 301 300 297 298 299 294 293 293 291 293 288 291 293 287 284 284 288 292 291 290 293 297 300 298 294 296 292 288 299 299 301 303 304 306 307 308 310 312 314 314 313 314 315 314 313 313 312
312 312 313 313 313 313 313 313 312 312 312 312 311 312 311 309 310 308 302 296 296 294 289 292 294 300 303 306 307 305 306 308 309 307 305 304 300 294 292 297 301 295 294 297 301 298 297 290 291 291 286 292 292 285 291 288 287 294 287 290 292 292 301 295 295 295 294 295 298 299 302 304 305 306 304 305 308 311 310 312 317 316 315 315 314 314 313
312 312 313 313 313 312 312 312 312 312 312 311 312 306 305 307 309 307 305 303 303 299 291 289 294 304 306 305 304 305 308 306 307 307 306 305 305 303 300 304 302 303 300 303 299 295 292 291 293 292 288 289 296 288 287 291 291 294 291 290 296 298 300 291 294 292 295 300 300 299 300 302 302 305 306 308 309 309 309 309 310 315 313 313 314 313 314
312 312 312 312 312 312 312 311 311 311 311 311 308 306 305 306 309 307 303 302 295 292 293 288 293 300 304 301 305 307 308 305 303 302 304 305 304 304 304 302 299 298 298 296 298 296 293 291 290 289 292 292 295 293 294 292 291 289 289 295 299 296 290 294 293 289 289 292 294 298 292 292 297 300 303 304 306 308 308 309 309 310 310 312 312 311 313
312 312 312 312 312 312 312 312 312 312 311 311 310 308 310 309 310 310 309 307 300 292 291 289 291 297 303 301 307 307 308 308 304 303 302 304 306 304 302 300 298 297 296 294 290 291 290 289 289 295 297 296 293 290 295 295 294 290 291 292 296 293 293 292 289 289 288 294 297 300 299 297 298 300 303 304 306 308 305 307 308 308 310 311 312 312 310
312 312 312 312 312 312 312 313 312 312 311 310 309 310 310 312 313 312 312 311 305 299 295 296 299 296 292 298 307 307 309 308 306 306 306 306 306 304 303 302 300 299 297 296 294 292 290 292 296 294 293 297 294 290 291 287 287 284 289 294 296 296 297 296 295 294 295 297 298 298 297 295 298 300 302 303 306 306 306 305 309 310 311 314 312 310 311
311 312 312 312 311 311 312 313 312 311 310 310 310 308 304 305 311 310 311 312 305 303 294 293 289 294 303 304 303 305 307 308 307 307 307 306 306 306 304 302 301 303 298 296 295 292 294 294 296 298 299 302 293 291 289 289 287 289 295 295 297 297 297 298 298 295 293 297 298 298 298 298 300 300 302 303 305 306 305 307 310 311 315 314 312 310 309
311 311 311 311 311 312 313 313 313 310 309 306 305 300 297 293 302 312 312 313 308 303 297 296 292 298 297 304 306 304 306 307 307 307 307 307 308 308 308 306 304 304 296 296 295 296 297 293 294 295 299 300 296 291 289 288 287 289 293 295 296 296 296 296 298 298 298 298 299 299 299 299 300 300 300 301 303 305 308 309 310 313 314 315 312 313 311
311 311 311 311 311 312 312 313 312 310 305 304 299 298 299 300 305 310 311 313 308 302 296 290 290 291 293 300 306 308 307 307 308 309 308 309 304 306 303 304 299 302 299 296 297 294 294 296 294 294 294 298 298 291 291 289 287 288 294 294 296 296 297 296 297 298 299 299 298 297 296 297 299 297 297 301 303 305 307 309 309 308 311 311 312 312 313
311 310 310 310 311 312 313 312 312 308 305 306 309 309 309 309 310 311 313 309 305 300 301 294 289 292 292 297 305 307 307 306 305 305 301 306 299 303 298 302 301 300 305 297 291 289 295 295 294 292 296 300 294 291 288 287 289 294 295 296 295 296 297 298 299 299 299 300 299 295 294 296 297 299 301 302 303 304 304 305 306 306 305 305 306 308 309
311 310 310 310 311 312 312 312 311 309 309 306 303 304 308 309 310 310 311 309 304 304 301 293 288 288 290 301 295 301 308 299 298 301 296 304 306 302 297 299 299 295 297 294 296 295 295 296 292 292 296 292 293 289 285 289 294 293 295 296 298 298 299 299 299 300 301 301 301 300 300 300 301 301 301 301 301 303 305 305 305 304 303 304 305 305 306
310 309 310 311 312 313 313 312 309 308 304 307 306 307 308 310 311 313 312 305 296 296 295 294 293 287 288 290 290 296 307 302 296 300 296 301 307 300 301 295 297 291 293 303 295 294 292 293 297 290 286 292 290 285 287 290 293 295 297 298 298 298 298 297 298 300 302 303 304 302 302 301 299 299 299 300 301 302 303 304 304 303 302 302 304 304 306
310 311 311 312 313 312 309 311 307 307 306 305 304 312 313 313 313 312 310 309 302 294 294 294 294 290 292 286 286 296 309 300 301 301 300 301 299 304 302 298 289 294 300 297 290 294 291 298 295 285 291 287 286 287 290 294 295 296 297 298 299 298 298 298 299 302 303 305 307 306 304 302 300 299 300 300 301 302 303 304 304 304 303 303 304 304 306
310 311 312 311 310 309 305 307 312 310 307 308 310 314 314 313 311 311 308 305 306 305 296 293 290 291 293 292 295 300 303 292 299 298 299 297 294 300 298 296 291 297 297 294 294 292 296 302 292 285 286 286 288 295 296 297 298 297 298 300 301 301 300 300 302 302 301 303 307 308 306 304 302 301 299 300 300 302 302 302 303 303 301 302 304 306 305
311 311 308 307 305 303 304 306 308 310 316 314 313 308 305 307 298 301 302 299 303 305 298 297 291 295 299 296 293 303 302 295 299 294 294 299 295 294 301 298 296 297 286 290 294 301 297 294 289 286 287 293 296 296 297 299 301 302 302 302 301 301 301 301 301 300 299 298 299 303 306 304 303 302 300 300 301 301 303 304 305 305 304 305 305 307 308
309 307 306 307 305 303 303 306 312 315 309 311 310 304 299 303 299 296 297 301 301 296 300 297 293 297 297 296 298 305 301 296 295 296 291 298 296 291 298 289 295 296 286 289 293 302 289 290 291 288 286 293 295 298 301 302 302 302 303 302 303 303 303 301 302 300 299 298 300 302 303 303 302 301 301 301 303 304 305 305 305 306 305 305 306 308 306
308 305 305 306 305 306 308 311 316 311 309 301 303 300 297 300 294 291 302 291 290 298 299 291 300 301 303 298 297 296 308 302 294 292 294 296 303 292 295 294 293 290 281 283 288 300 288 284 288 287 287 292 295 299 300 301 301 302 303 302 304 304 304 302 302 302 302 302 303 303 304 305 306 306 307 308 306 304 305 306 306 306 305 305 309 307 306
308 309 311 308 310 307 307 308 309 307 304 300 301 302 300 290 299 301 299 290 291 293 304 300 302 299 305 305 300 295 305 309 306 305 299 293 302 302 292 288 299 288 284 281 292 295 291 288 286 285 287 294 296 299 300 301 302 303 304 304 304 304 303 303 303 303 302 301 301 302 303 303 304 305 306 307 309 308 305 306 306 306 306 306 311 309 308
313 309 309 310 313 310 308 306 305 303 304 304 295 286 291 298 301 296 296 289 290 298 299 302 296 296 298 302 301 303 302 309 307 304 298 292 300 294 291 292 294 283 280 287 295 291 289 284 285 285 292 296 298 300 299 299 302 302 303 304 305 304 304 303 302 302 303 301 301 301 302 302 303 304 305 305 306 309 311 311 309 309 309 307 309 308 310
309 307 309 309 310 308 308 296 302 301 286 288 286 285 290 284 288 291 292 299 305 300 299 308 303 306 309 309 303 307 304 309 302 301 297 292 300 299 293 287 287 281 287 296 291 287 285 285 285 288 295 296 298 299 299 300 301 303 303 305 304 304 304 303 302 302 302 302 302 301 301 301 302 303 305 305 305 306 308 310 311 309 310 311 309 311 314
310 311 310 310 302 306 305 288 302 300 289 288 285 284 288 286 290 294 292 292 299 299 302 299 299 299 295 305 300 301 304 303 306 302 299 299 295 292 289 283 286 293 298 291 287 282 286 289 291 294 296 298 299 299 299 300 300 302 303 304 305 305 304 304 303 302 302 302 302 302 302 301 301 302 303 304 304 304 305 307 309 309 309 310 311 312 314
310 305 298 296 292 296 292 286 293 288 285 288 291 290 290 287 289 291 292 298 300 298 302 302 301 299 298 303 306 304 302 296 304 297 293 297 292 290 287 286 293 293 289 284 287 288 288 287 295 297 297 297 298 299 300 299 299 299 302 303 303 304 303 303 302 302 301 301 301 301 300 301 300 300 301 302 303 304 304 304 306 306 306 306 306 306 308
306 297 291 289 288 288 289 287 287 285 292 294 292 293 292 292 293 294 298 305 300 302 300 303 302 303 300 304 299 297 302 301 295 297 298 296 288 286 293 296 293 286 286 286 283 284 285 290 294 296 298 298 298 298 299 299 299 299 301 301 302 303 303 303 302 302 302 301 301 301 301 301 300 300 300 301 301 302 302 303 305 305 305 305 305 305 306
298 302 294 289 287 287 295 288 290 294 295 295 295 297 296 297 298 298 300 300 298 299 300 303 304 305 299 300 300 299 302 300 296 296 297 289 289 292 297 290 283 286 283 283 284 285 288 293 296 298 299 299 298 298 298 298 299 298 299 301 302 302 303 303 302 302 302 302 302 301 301 301 301 302 302 301 301 301 302 302 302 303 303 302 303 304 304
296 297 293 288 285 288 288 292 298 297 298 298 297 298 299 299 296 296 299 299 299 300 300 301 297 298 297 301 300 294 295 298 294 292 296 293 294 289 284 287 285 288 288 286 287 292 294 296 298 299 301 300 298 297 298 298 299 299 299 300 301 302 302 302 302 302 302 301 301 301 301 301 301 301 301 301 301 301 302 301 301 302 301 301 301 302 302
303 292 288 286 293 295 294 296 294 293 295 297 298 297 297 297 296 296 300 300 300 300 301 299 297 296 291 294 294 291 289 294 288 286 293 290 286 284 285 283 284 284 290 293 292 295 296 299 301 302 300 299 298 298 298 298 300 300 300 299 300 301 302 303 303 303 303 302 301 301 301 302 301 301 301 301 301 301 302 302 302 301 301 300 300 300 300
295 291 296 291 295 294 297 295 292 291 293 294 295 295 297 296 295 297 300 300 301 301 299 299 299 293 292 292 285 288 289 292 291 288 286 285 289 291 289 284 286 286 289 294 295 297 300 301 302 299 298 297 300 298 297 298 302 301 300 300 301 302 302 302 302 303 303 302 302 301 301 301 300 300 300 300 301 302 303 303 302 302 302 302 301 300 301
298 292 291 299 295 294 294 291 291 291 292 293 295 295 296 296 296 296 301 302 301 296 294 292 292 289 284 284 283 281 286 294 289 287 286 286 291 290 285 285 289 293 295 298 299 300 300 301 300 298 297 296 296 297 298 299 300 300 300 300 300 301 302 303 303 303 303 303 303 304 302 302 302 302 302 301 301 300 300 302 303 302 302 303 303 302 301
291 290 294 300 302 300 297 296 296 294 295 296 297 297 299 298 299 300 303 299 296 292 291 293 290 285 282 283 287 290 292 288 285 287 286 291 294 288 288 287 289 293 295 295 296 298 300 300 301 302 300 300 301 297 298 299 300 299 299 300 299 300 301 301 302 302 302 302 303 303 304 304 304 304 303 302 300 299 298 299 301 302 302 302 302 302 303
Wind_Speed
21 21 21 21 19 17 17 17 17 17 17 9 9 5 4 3 5 16 13 14 16 6 3 4 6 5 8 14 10 9 5 7 7 7 6 4 3 3 2 5 4 2 2 6 8 9 6 2 2 5 8 11 8 12 17 15 15 12 7 11 3 16 2 7 9 9 14 16 17 13 10 16 12 10 6 10 13 12 11 9 5 7 4 7 2 2 8
20 21 20 19 17 17 16 16 16 15 16 8 6 2 2 5 6 7 7 15 12 8 8 7 8 7 12 13 12 14 9 9 11 8 6 4 2 1 2 1 3 4 2 3 8 9 5 4 3 4 4 6 9 13 10 17 11 8 6 7 9 7 2 5 10 8 7 8 5 7 5 9 10 10 10 12 12 12 3 6 5 7 9 8 4 6 9
20 20 18 16 16 15 15 16 15 14 15 11 5 4 4 5 4 5 6 10 8 10 5 6 5 8 11 10 13 15 10 10 12 11 7 3 1 1 1 0 3 3 3 3 5 5 2 4 1 6 7 8 9 8 12 16 11 9 13 16 9 5 6 4 4 3 5 9 8 4 2 6 9 10 16 14 16 13 8 6 4 8 5 6 6 5 12
19 19 17 16 15 14 14 14 14 14 13 13 6 5 4 4 5 2 6 6 4 6 6 5 6 6 11 10 8 11 11 10 9 12 7 10 11 0 1 2 3 2 6 2 3 7 2 2 3 5 6 7 4 6 14 11 13 15 14 10 6 3 4 5 8 8 9 10 9 13 8 12 10 15 19 15 10 13 9 6 6 10 5 8 7 9 11
19 19 18 15 15 13 13 13 14 13 13 12 6 4 2 3 2 6 7 5 2 8 3 8 9 7 8 4 6 9 11 10 7 9 5 9 8 5 2 3 4 3 5 2 6 6 10 6 5 7 8 6 8 11 12 13 13 10 8 11 6 1 6 10 10 14 16 17 22 23 17 17 19 14 18 15 14 12 13 11 10 6 9 9 5 11 11
19 20 18 16 14 12 11 12 12 13 12 11 5 3 2 2 2 3 1 1 6 12 11 11 9 9 8 4 5 7 9 8 7 6 2 6 4 4 1 3 4 5 2 5 4 6 7 7 6 4 3 8 7 9 8 11 7 13 7 9 4 4 5 9 9 18 20 22 22 19 16 14 15 18 17 19 17 13 14 10 6 10 8 9 9 10 8
19 19 19 17 14 12 12 11 11 11 12 6 1 2 2 1 1 0 3 3 5 4 10 13 9 10 7 3 5 7 9 11 9 10 8 5 6 2 3 3 6 7 3 2 4 3 5 7 5 4 6 8 8 6 8 2 11 9 11 8 4 5 6 8 12 20 22 20 16 15 15 11 10 12 20 20 17 17 14 8 5 12 6 10 11 10 11
20 19 19 17 14 12 11 11 11 10 9 6 2 3 0 1 1 2 1 2 5 5 5 6 8 7 7 4 4 7 8 11 13 10 7 7 5 4 6 7 6 5 3 3 4 5 5 9 11 6 6 7 1 3 2 9 6 7 10 9 2 4 6 12 13 13 15 13 11 12 9 9 7 7 16 19 18 15 12 9 8 6 4 5 7 7 8
19 19 19 18 15 12 11 10 10 10 5 3 2 2 1 1 1 2 2 4 3 3 2 4 5 5 4 2 4 7 7 10 12 11 7 3 5 7 8 7 7 4 3 4 6 6 6 9 11 13 12 10 2 3 2 2 11 12 7 6 8 5 5 8 7 10 11 9 15 19 13 11 2 15 3 16 19 17 10 7 5 4 5 4 5 6 5
19 19 19 18 15 13 11 10 10 9 3 4 2 3 1 1 2 2 2 3 1 4 2 3 4 3 2 4 6 5 10 10 10 8 4 5 9 6 6 7 5 3 4 7 6 6 10 12 11 10 11 10 9 7 7 6 7 5 5 8 9 3 5 8 8 10 7 11 15 17 16 7 9 14 15 16 1 6 5 5 12 9 2 4 6 8 5
20 19 18 18 17 15 14 11 10 9 3 5 3 2 1 2 2 2 2 3 2 4 1 3 3 4 7 7 10 9 9 9 5 4 5 8 9 4 6 6 4 6 5 4 7 8 11 11 10 10 11 12 13 8 9 12 11 10 9 6 7 7 5 6 4 4 10 17 19 15 5 6 1 1 14 19 12 15 18 9 8 13 13 3 5 5 3
18 19 18 18 17 15 14 13 11 9 5 3 4 5 4 3 4 3 3 3 3 1 1 4 4 6 9 10 8 10 10 8 9 6 10 11 12 6 5 4 3 5 4 6 8 8 11 11 10 10 12 11 12 12 12 13 13 11 9 11 10 11 8 7 3 3 7 13 12 2 1 1 2 2 10 15 9 17 18 22 24 19 21 18 13 7 4
18 18 18 17 16 15 15 13 11 8 7 5 4 6 2 3 3 2 3 2 4 1 5 4 3 8 9 11 11 10 9 7 7 9 11 9 9 6 2 2 4 6 8 10 9 9 7 8 8 9 10 9 9 10 13 14 16 14 11 12 12 11 7 5 3 5 6 3 6 1 6 6 6 3 11 21 15 17 16 20 18 18 16 15 9 10 4
19 19 18 17 17 16 16 15 11 9 9 6 5 4 4 3 4 2 3 2 4 4 6 8 7 9 7 7 7 9 7 7 6 6 7 6 10 9 5 6 8 10 9 5 5 4 5 2 4 3 6 4 3 5 10 14 14 15 16 15 14 14 7 3 7 2 1 3 5 6 7 7 11 14 17 15 10 12 8 9 11 16 16 15 12 9 10
19 19 18 18 17 17 16 14 11 9 9 7 4 4 5 5 4 3 2 1 4 3 3 5 4 5 7 7 6 6 5 5 7 6 8 7 6 7 7 9 12 9 5 3 4 3 2 3 2 4 3 1 1 2 2 4 7 15 16 15 14 10 8 2 2 3 4 6 7 6 5 3 7 11 17 11 6 10 9 1 9 16 17 15 13 12 8
19 18 19 18 17 17 16 14 11 9 9 8 4 5 6 5 5 4 3 3 2 4 5 10 8 5 4 5 5 6 6 6 4 5 6 4 4 10 5 9 10 6 5 4 2 3 3 1 2 1 2 3 3 3 3 4 3 7 15 14 15 11 8 5 4 5 7 5 3 2 1 0 5 18 20 21 15 10 7 4 13 12 15 14 13 13 13
19 19 19 18 18 17 16 15 13 11 10 7 4 3 4 4 4 3 2 1 3 6 1 2 3 3 3 6 4 3 1 2 1 4 5 6 8 9 8 9 6 5 5 3 4 2 3 1 3 4 3 4 4 3 6 3 5 5 5 10 10 8 5 2 1 5 6 3 3 2 1 2 13 19 20 20 19 12 4 7 5 11 13 14 12 14 13
20 19 19 19 18 17 16 15 14 12 9 7 4 3 3 3 5 4 2 3 4 4 4 8 7 3 3 3 4 4 3 1 1 3 3 5 6 4 9 6 7 5 2 4 2 3 2 2 3 2 2 3 7 4 3 6 4 4 3 5 1 3 4 2 5 3 6 5 4 1 2 4 13 19 22 21 16 3 11 7 2 7 11 12 10 12 12
19 19 19 19 18 17 16 15 14 12 11 7 2 3 5 4 4 5 1 2 3 4 2 4 5 6 5 4 6 5 5 1 1 2 4 5 2 6 11 2 2 5 5 5 2 2 4 3 3 2 3 4 4 4 5 4 5 6 9 6 3 4 4 1 2 2 4 4 3 3 3 1 14 21 19 17 3 9 8 3 2 7 9 10 11 11 11
20 19 19 18 17 16 15 14 13 11 10 6 2 3 3 2 5 8 6 3 3 5 3 5 5 8 4 5 5 4 3 1 2 2 1 4 4 8 5 3 4 1 4 3 2 2 2 5 5 3 3 3 4 4 2 3 4 7 5 4 5 2 1 4 4 5 3 4 3 4 5 6 17 20 12 20 10 5 5 3 7 9 10 10 12 12 12
20 19 18 18 17 16 15 13 11 10 9 7 1 2 3 3 5 6 6 4 2 4 5 4 5 7 6 6 7 8 7 8 4 3 4 4 5 2 3 3 6 3 3 4 5 4 3 5 5 3 2 2 5 4 6 6 4 8 8 3 5 8 3 3 3 1 2 4 4 3 2 4 10 12 5 5 8 3 5 5 9 10 11 10 10 13 13
19 19 18 17 16 15 14 13 11 9 8 7 1 2 2 2 2 4 5 5 4 4 4 3 2 6 9 9 10 10 12 12 11 7 5 4 2 2 2 3 3 1 2 1 2 1 1 1 3 3 5 4 1 4 6 4 7 8 7 5 3 7 2 2 3 3 2 1 3 2 3 4 2 7 7 8 9 9 8 9 9 9 10 10 9 12 13
19 18 18 17 16 15 14 12 10 8 6 6 1 2 3 0 1 1 4 5 3 4 3 5 5 8 9 12 14 14 13 12 9 7 7 4 4 2 3 1 4 1 2 2 2 2 4 2 4 3 3 2 6 6 5 3 2 7 9 7 1 6 3 2 2 3 1 3 4 6 6 5 7 6 6 9 10 9 9 10 10 8 8 9 10 11 11
18 18 18 18 17 15 13 11 9 6 4 4 4 3 2 1 1 1 1 0 2 4 4 2 1 5 2 7 7 7 10 10 12 12 8 6 3 4 2 2 1 0 1 6 6 1 3 2 4 2 3 4 5 4 6 4 4 7 7 6 6 7 7 6 6 10 5 2 9 13 12 9 9 10 11 12 9 10 8 7 8 4 5 10 12 11 10
18 18 19 17 16 14 12 11 8 4 3 3 3 3 3 2 2 3 2 2 1 1 2 4 5 10 9 9 9 6 8 11 10 10 9 7 7 5 5 6 6 2 6 4 3 0 0 2 3 1 4 4 8 4 3 4 4 3 5 4 7 5 9 4 11 10 3 1 8 12 7 1 7 7 8 10 11 11 12 7 2 1 5 6 8 9 11
18 18 18 17 14 13 12 9 6 2 2 3 3 2 1 1 2 2 1 1 0 0 2 3 7 6 4 7 5 5 7 4 9 12 11 12 13 12 7 1 2 3 2 2 0 3 3 2 3 2 4 3 7 3 3 4 7 7 2 3 6 5 8 6 10 6 8 3 8 17 16 4 1 5 5 5 7 9 11 12 11 6 4 7 6 4 5
18 18 17 15 14 13 11 8 4 2 2 2 2 1 1 1 3 6 4 2 0 1 1 3 5 7 6 11 10 6 6 4 2 2 8 9 8 2 1 3 4 3 5 4 2 2 1 1 3 4 4 2 5 3 4 6 4 5 3 3 9 6 9 8 8 6 5 3 8 10 7 8 13 15 8 6 6 8 8 11 11 11 10 4 5 6 2
18 17 16 15 14 13 10 6 5 2 2 3 2 2 3 3 3 6 4 0 1 1 2 4 5 9 9 4 7 7 4 6 4 1 3 9 10 9 7 6 4 5 4 3 4 4 3 5 5 3 1 2 5 3 4 6 3 2 1 5 6 6 6 8 6 6 9 9 10 5 4 11 12 13 12 8 6 6 10 9 11 11 10 7 4 6 7
17 16 15 15 13 11 8 6 5 3 2 2 1 2 3 5 4 5 5 1 1 1 2 4 5 3 3 6 7 6 10 9 8 9 9 8 9 9 8 6 5 3 2 2 1 2 2 4 3 3 2 3 3 4 5 4 5 3 4 7 8 7 9 7 7 10 12 9 8 8 10 13 15 15 13 11 7 6 9 10 8 9 9 6 8 8 6
17 15 14 13 11 8 6 5 5 5 4 2 1 2 0 1 2 4 5 3 2 2 1 3 4 3 3 3 5 8 7 6 7 9 7 5 5 5 5 4 3 2 2 2 1 2 2 3 3 4 5 6 3 3 3 4 5 4 2 7 12 13 12 10 8 9 13 10 10 12 13 16 14 15 15 13 9 8 9 9 5 2 5 5 4 6 7
16 14 12 11 9 6 5 5 4 2 3 2 0 1 0 1 1 1 5 3 3 2 1 1 4 4 4 1 5 8 8 7 7 5 5 5 5 4 2 3 3 2 2 2 2 0 1 2 4 5 5 6 5 2 5 6 7 5 9 16 15 16 15 16 14 12 13 13 12 13 14 16 13 11 16 14 12 10 8 3 3 4 3 4 5 3 5
14 11 10 9 7 4 4 5 7 3 3 2 1 1 1 2 2 1 2 4 3 1 0 2 3 2 1 2 2 2 5 4 4 3 2 3 4 3 5 3 2 1 2 2 1 1 1 3 1 3 3 6 5 3 4 4 7 11 18 19 17 15 16 17 17 17 15 13 12 15 17 15 10 12 11 5 5 5 4 2 2 3 4 2 3 2 2
12 11 9 7 5 2 3 4 6 6 2 1 2 3 6 6 3 2 4 3 2 0 1 1 1 2 1 2 1 3 3 2 3 2 4 3 2 2 2 1 2 2 6 3 3 1 1 1 1 1 2 2 3 3 2 3 8 14 18 17 15 15 17 17 18 16 14 13 9 12 16 14 2 4 5 4 3 3 5 6 5 3 4 4 4 3 3
11 10 8 7 6 3 1 3 2 4 4 2 0 1 1 4 3 5 1 0 0 1 0 0 1 2 3 2 1 3 1 2 2 3 3 3 2 3 2 1 3 2 5 3 1 0 2 1 1 3 0 1 1 1 3 7 12 14 15 15 14 17 17 17 15 15 13 12 11 15 18 16 12 9 9 9 10 10 8 7 6 6 5 4 4 4 4
11 9 7 6 6 4 3 2 2 1 1 2 1 1 2 4 2 2 2 1 1 1 0 1 1 2 3 4 2 3 1 1 3 3 2 2 2 2 2 3 4 3 3 1 2 1 3 4 4 3 5 6 1 3 1 11 14 12 13 12 13 16 18 21 22 21 20 15 12 12 11 11 12 12 10 7 9 10 10 9 6 6 6 5 5 4 3
9 8 6 6 6 4 1 2 1 1 1 2 2 3 6 5 2 0 2 1 1 1 1 1 0 1 0 1 2 2 1 1 1 1 0 1 2 1 1 1 4 2 1 3 2 3 3 5 3 4 6 4 6 2 7 11 13 18 15 14 13 14 16 18 19 20 19 16 12 8 8 9 12 11 4 6 8 8 8 8 7 6 7 5 5 4 3
5 5 4 4 2 1 0 2 2 2 2 3 5 6 6 3 0 1 0 0 0 1 1 0 1 1 1 1 1 3 1 2 0 0 0 0 1 0 1 2 2 1 1 2 1 2 1 2 3 3 5 7 7 7 8 10 12 16 18 16 15 14 17 18 21 20 18 18 14 6 7 9 10 6 4 6 7 6 7 10 10 7 7 7 5 5 5
2 2 0 0 1 1 1 1 1 4 8 13 10 3 0 1 1 0 1 1 0 1 1 1 2 2 1 2 1 1 0 2 1 0 1 0 1 1 0 0 2 1 2 2 2 2 1 2 2 2 4 5 6 6 5 7 9 10 12 13 13 15 17 17 20 19 18 18 19 16 7 7 7 6 5 5 6 7 9 8 6 6 7 7 6 5 4
4 1 1 0 1 1 0 0 3 9 6 1 0 0 0 0 0 1 1 1 0 1 1 2 2 2 2 0 3 1 1 0 2 0 0 1 1 1 0 0 1 0 0 0 0 2 2 2 1 1 4 7 9 11 8 5 7 9 9 9 11 12 14 15 16 18 17 15 15 15 13 8 6 7 4 5 5 5 6 6 7 6 6 6 6 5 5
1 0 1 1 2 2 1 1 5 2 0 1 0 1 0 0 1 0 1 1 2 1 1 2 2 2 3 3 3 3 0 1 2 2 1 2 1 0 0 0 1 1 1 1 1 2 2 1 2 1 5 8 8 9 7 6 8 8 9 10 10 12 13 15 16 16 18 18 17 15 15 14 13 10 8 4 3 6 7 7 7 7 6 6 6 6 5
2 1 1 1 0 2 2 3 1 1 0 0 0 0 0 1 2 1 0 1 1 1 1 1 1 1 1 1 2 4 1 2 1 0 0 1 1 0 1 0 0 1 0 1 1 1 1 1 1 2 5 8 8 9 8 5 7 8 9 9 10 10 12 14 15 17 18 17 17 17 17 17 16 14 12 11 7 4 3 5 7 7 7 5 5 5 4
0 1 0 1 0 3 2 1 1 0 0 1 0 1 1 0 0 1 1 0 1 1 2 1 2 2 1 4 2 1 1 1 1 1 0 1 0 1 1 0 0 1 0 1 1 1 2 2 2 2 6 8 9 8 9 7 6 8 10 10 10 10 12 13 14 16 16 16 16 17 17 18 19 16 13 11 10 8 6 4 2 1 1 3 4 4 4
3 1 1 0 0 1 1 1 1 1 0 1 2 2 1 1 1 1 2 1 0 1 2 0 2 1 0 2 2 1 2 1 1 0 1 1 0 1 0 0 0 1 1 0 1 1 2 2 2 4 6 7 8 8 9 8 5 4 7 8 9 10 11 12 14 15 16 16 16 15 16 18 18 17 16 15 15 14 11 9 7 5 5 5 3 2 4
1 1 1 0 1 1 1 1 1 1 2 0 1 2 3 3 5 1 2 2 1 2 3 2 2 1 0 1 3 1 1 1 0 0 1 1 1 0 0 1 0 2 0 1 1 2 0 1 4 5 7 7 7 8 9 9 7 4 6 8 9 9 10 11 12 13 15 14 14 14 15 18 18 18 18 17 15 14 11 11 9 10 12 11 10 9 5
1 1 1 0 0 1 1 2 1 2 2 2 1 1 1 1 4 1 3 2 3 5 3 2 2 2 2 1 0 0 1 1 1 1 1 1 0 1 1 0 0 0 1 0 1 0 1 2 4 4 6 8 9 9 9 9 7 4 5 7 9 10 11 11 12 12 12 13 15 15 16 16 17 18 17 17 16 16 15 13 9 12 13 13 13 14 12
0 1 0 2 4 2 1 0 1 2 1 1 1 2 3 3 2 3 4 2 2 6 6 6 5 2 1 3 1 1 1 1 0 2 1 0 1 0 0 1 2 2 1 1 2 1 2 4 5 5 6 7 7 8 9 9 8 4 4 7 8 9 9 10 10 11 11 12 13 13 14 14 15 16 17 17 18 19 17 15 14 13 16 17 16 16 14
1 1 1 1 1 3 1 1 1 0 0 0 3 4 5 4 3 3 3 2 6 6 7 3 4 5 2 2 1 1 0 0 0 0 1 1 1 1 1 2 2 2 2 2 1 2 2 5 5 5 6 6 7 9 9 9 9 7 4 4 6 7 8 8 9 10 10 10 11 13 12 13 14 13 14 17 18 18 18 17 17 18 18 17 16 16 15
1 2 2 0 2 0 3 1 1 1 1 3 2 2 3 2 4 7 8 4 5 5 6 2 1 1 1 2 1 1 1 1 1 2 1 1 2 2 1 2 1 1 0 2 2 0 2 3 5 6 6 5 6 7 8 9 10 9 5 4 5 6 7 7 8 8 9 10 10 10 11 12 12 12 13 14 16 17 17 16 16 16 17 18 19 18 17
2 1 1 2 1 0 1 1 3 2 1 2 2 4 5 5 5 6 7 4 6 6 4 1 2 1 1 2 1 2 3 2 2 1 2 3 2 1 1 1 2 2 1 1 2 2 3 4 6 5 4 5 5 6 7 8 9 9 8 4 3 4 4 6 6 6 6 7 7 9 10 11 11 11 12 12 13 13 13 15 15 15 15 17 18 18 17
1 3 1 0 2 1 1 3 5 2 3 3 2 3 3 3 5 7 4 4 5 4 5 3 2 3 1 1 1 1 1 1 1 1 2 2 1 1 2 2 1 2 4 3 3 3 3 5 3 3 4 4 5 7 8 8 9 9 8 6 3 3 4 4 5 4 5 5 6 8 9 9 9 10 11 11 10 10 11 13 14 14 14 14 16 17 17
1 1 2 2 1 5 1 1 0 0 1 2 1 2 2 3 4 6 2 2 3 4 4 2 1 1 2 3 1 1 0 1 2 1 1 1 0 1 0 1 1 3 3 3 3 3 4 2 3 3 4 4 4 6 7 8 8 8 8 7 4 2 3 3 4 4 4 4 4 6 7 7 7 8 8 8 9 10 11 12 12 12 12 12 12 13 14
1 1 1 2 0 1 4 1 2 3 3 1 0 2 1 3 4 6 3 3 3 5 3 2 1 2 2 1 0 0 1 2 1 1 2 0 0 2 1 2 3 4 4 2 1 2 2 1 2 2 3 4 4 5 5 6 7 8 9 8 6 4 2 3 3 3 4 4 3 3 5 6 5 4 5 6 8 9 10 9 9 9 10 10 10 11 11
Wind_Direction
336 337 339 340 339 339 339 341 343 343 346 358 351 316 330 355 258 286 314 354 341 332 71 20 23 4 352 339 3 352 357 340 19 24 32 2 79 54 38 9 4 40 347 331 317 329 326 38 195 288 306 303 302 343 335 345 343 334 317 331 295 323 306 312 287 291 263 262 263 274 238 199 208 202 169 184 194 188 190 181 180 183 188 224 271 253 258
336 337 337 337 336 336 338 340 343 344 352 351 328 319 302 283 285 309 333 349 337 47 37 357 344 352 354 2 357 351 345 4 2 357 3 12 46 79 38 60 69 300 330 332 339 357 319 118 332 302 299 291 331 323 338 346 330 339 328 338 331 332 35 17 314 317 302 285 333 271 246 220 202 199 193 192 199 187 155 130 141 185 207 191 156 225 265
336 335 335 333 333 334 336 338 339 344 343 352 348 323 289 270 248 242 329 351 358 43 4 16 336 2 0 352 13 349 358 353 347 338 334 357 15 34 77 144 347 326 4 14 346 326 169 308 233 294 301 288 312 323 335 323 308 304 299 289 306 276 298 327 284 306 226 206 213 226 236 230 209 207 197 195 191 182 143 173 173 193 230 173 197 234 252
334 334 333 332 331 333 335 333 337 339 338 349 347 323 314 357 330 350 333 348 349 60 21 34 355 5 9 357 354 341 340 337 335 360 355 29 345 360 165 78 11 316 340 336 314 313 300 293 284 300 286 302 313 312 317 316 312 305 303 342 347 272 282 235 242 256 267 282 293 284 324 305 266 205 205 190 185 183 180 116 138 194 198 189 220 213 258
334 333 332 333 332 333 332 331 331 333 333 350 334 299 211 288 357 341 343 306 61 356 16 12 4 6 352 328 329 329 329 329 335 15 317 3 342 341 89 9 358 328 326 332 317 318 316 299 278 275 290 305 293 305 302 312 292 344 1 346 317 292 299 269 248 252 261 278 275 281 295 281 281 256 202 192 180 182 188 172 204 164 118 214 241 228 229
332 331 331 332 330 329 329 326 325 327 327 350 349 336 301 4 358 62 132 308 330 350 348 350 334 328 338 311 304 305 313 334 340 340 324 337 10 13 334 4 341 309 325 334 315 323 310 309 294 292 260 308 303 314 303 274 14 7 350 336 321 318 280 288 305 300 293 280 276 269 272 263 260 261 210 193 186 182 188 204 176 150 168 197 229 227 206
330 330 329 330 328 325 323 321 319 323 320 356 360 358 310 235 324 99 30 19 323 300 279 301 313 321 330 322 307 328 355 345 348 336 342 354 332 1 325 326 330 328 330 354 304 317 332 311 302 287 296 303 320 323 326 140 10 357 346 341 326 311 235 274 313 307 296 289 274 272 251 259 289 246 199 186 190 193 188 189 184 180 176 197 206 207 206
328 327 326 325 325 322 318 316 313 314 323 334 305 199 269 358 36 314 29 181 291 277 285 298 322 313 321 323 329 348 352 344 344 345 355 325 312 330 318 332 332 323 324 317 300 292 288 283 294 296 268 283 297 319 223 296 310 2 330 323 349 3 280 321 322 309 296 287 322 346 330 294 301 317 184 185 193 197 181 179 200 215 203 190 169 178 224
326 326 323 323 323 320 314 311 309 306 339 299 201 283 253 253 154 161 288 297 252 265 292 315 312 310 305 291 343 329 352 341 344 323 308 271 323 323 318 316 311 290 307 292 279 275 284 296 299 312 308 299 189 136 221 191 300 321 330 322 313 310 273 320 313 325 302 307 346 331 311 301 298 30 313 193 189 201 180 177 180 158 217 167 113 161 224
324 322 322 321 321 318 314 310 306 303 327 289 255 249 138 197 161 138 181 261 286 305 264 266 305 283 306 327 322 331 316 324 346 332 290 331 307 286 304 300 300 294 310 287 268 291 289 284 293 289 289 283 276 186 211 226 255 278 289 297 295 264 303 316 335 321 266 303 326 316 304 323 30 16 347 314 185 88 154 114 44 15 310 139 156 202 223
324 322 322 322 320 318 315 311 306 301 310 294 295 263 253 255 259 188 163 272 194 213 273 259 235 277 306 315 314 314 308 320 349 359 301 307 304 300 304 311 333 294 272 268 292 286 277 280 281 272 267 273 266 235 200 221 230 239 260 292 279 281 281 294 336 299 290 312 318 306 322 61 125 242 354 4 5 80 65 58 12 21 32 288 256 209 173
321 321 319 319 320 316 314 309 302 293 275 244 230 264 245 234 245 178 177 254 262 154 214 249 245 279 294 298 302 297 299 315 316 298 283 290 294 309 319 320 336 304 258 288 296 292 292 283 267 259 263 259 262 256 217 221 233 227 224 241 268 275 284 285 284 264 295 311 326 332 27 203 282 340 17 7 29 77 98 56 28 7 3 359 12 46 36
321 319 322 320 319 315 312 311 305 294 282 272 247 267 221 196 234 187 176 175 266 241 289 270 234 264 276 287 284 283 306 307 300 310 300 305 314 313 291 290 296 285 302 295 300 313 312 291 288 278 269 266 261 253 243 230 234 231 226 235 244 263 269 288 272 260 282 320 5 139 204 231 349 350 12 2 8 13 30 56 25 15 9 1 0 17 63
322 322 321 318 315 313 310 310 306 298 281 267 262 247 258 232 238 150 166 158 263 197 228 278 266 269 276 285 301 313 319 306 314 315 312 314 316 313 316 327 315 303 296 287 303 304 306 355 308 334 315 295 246 246 239 235 233 232 228 231 237 249 266 257 293 245 298 336 289 240 296 300 7 6 352 354 347 332 360 59 33 11 3 8 355 19 28
321 319 317 314 312 310 310 308 304 295 282 267 250 239 250 239 216 197 176 151 259 268 162 272 272 295 311 305 323 321 314 302 329 317 299 293 298 321 315 329 322 313 316 355 335 330 257 309 324 318 295 335 16 283 282 226 218 224 226 229 236 229 221 227 307 291 16 355 333 344 23 2 315 333 305 304 277 285 281 52 54 7 4 1 11 12 26
321 318 316 316 313 310 310 310 306 299 288 290 258 252 245 231 221 214 175 178 163 287 228 226 247 283 297 298 302 304 299 311 303 293 315 310 299 316 320 333 327 335 11 360 342 325 322 3 299 306 311 318 318 277 294 311 310 201 201 212 230 235 220 231 239 274 319 321 300 277 43 65 11 318 311 313 320 286 253 119 52 357 352 355 5 18 23
320 317 317 314 312 312 310 310 309 301 298 289 256 236 255 187 207 195 154 166 164 234 55 92 157 239 306 292 302 282 237 238 332 348 324 330 327 314 320 331 329 11 47 21 10 333 334 327 270 251 257 285 297 309 307 356 343 19 144 194 218 246 254 243 338 261 260 293 305 269 142 319 325 315 315 313 311 308 190 76 52 334 333 347 4 24 22
320 319 316 314 314 314 313 311 311 308 297 283 262 240 248 189 199 189 192 162 190 278 228 240 244 251 231 233 269 255 279 96 43 244 240 289 306 317 330 336 342 329 10 11 18 1 304 256 332 327 298 321 319 289 24 319 358 13 333 150 77 244 291 263 264 268 283 284 269 4 3 310 327 319 314 314 300 353 68 82 83 315 327 346 9 26 30
320 318 317 317 317 316 315 314 314 312 308 311 276 246 248 226 191 189 176 179 169 244 219 233 197 217 232 265 272 291 287 272 168 8 302 326 270 313 310 334 21 337 358 350 338 335 327 311 249 278 305 324 357 25 330 5 359 327 14 50 55 23 351 283 317 299 263 248 239 209 172 324 329 324 320 308 357 49 80 69 331 306 335 353 12 30 30
320 319 320 321 319 317 318 318 315 313 313 307 260 243 257 193 185 188 198 221 183 257 261 256 237 257 252 263 277 279 293 254 169 188 230 270 278 315 346 12 316 305 315 347 13 345 349 336 335 309 322 323 347 313 346 343 334 20 346 343 70 328 137 325 326 308 314 9 355 28 355 316 340 327 338 8 62 43 1 9 26 335 353 2 17 23 30
322 324 324 321 320 319 320 320 319 317 312 314 235 248 289 229 197 201 203 202 248 287 286 226 230 242 251 255 254 260 256 252 207 224 219 235 273 338 360 8 306 6 330 352 339 344 351 316 332 328 292 307 309 6 1 320 308 352 350 343 73 16 28 344 314 223 323 356 30 55 287 278 322 3 38 332 65 88 43 24 38 357 356 0 19 24 26
326 326 323 321 323 322 322 322 319 316 307 308 137 187 229 242 188 197 200 199 232 230 256 316 317 267 261 256 250 247 249 249 243 223 228 267 268 237 265 271 253 160 214 207 313 327 280 303 299 315 327 314 296 19 330 4 26 338 340 358 69 359 69 227 244 304 59 287 344 346 210 174 346 26 355 14 27 46 47 40 46 10 348 349 17 21 20
327 326 323 324 325 324 325 324 323 319 308 293 237 191 232 314 263 179 172 214 223 268 298 289 288 282 274 259 246 237 238 242 256 250 238 240 304 300 229 220 273 170 167 149 208 214 257 242 258 241 300 317 350 339 344 32 347 357 352 336 306 309 287 272 220 301 283 258 42 357 354 61 47 63 24 20 12 18 43 47 37 7 341 358 7 2 16
328 326 326 327 327 328 332 334 335 331 306 271 219 189 232 227 217 112 136 235 342 313 292 239 338 298 242 279 270 219 225 235 229 231 216 187 216 292 317 238 250 254 206 217 200 180 277 247 253 281 301 315 346 8 359 360 10 336 342 345 348 331 349 20 19 318 3 323 13 25 7 51 56 27 20 9 0 7 21 51 61 12 360 16 3 355 1
328 328 328 329 332 335 338 338 342 337 295 270 247 227 234 267 208 166 132 168 172 192 275 310 235 242 253 252 269 262 221 221 217 211 208 203 202 191 226 231 178 222 271 261 144 162 46 292 319 324 318 1 18 332 323 341 309 346 345 316 331 8 7 59 2 316 322 328 30 1 345 248 105 102 42 13 352 355 359 3 68 103 4 48 5 353 1
329 329 330 333 334 336 336 337 335 322 226 259 207 182 176 240 172 140 137 303 290 221 301 297 282 283 290 316 287 249 275 257 201 201 204 207 211 211 235 341 331 257 257 325 17 334 296 302 277 284 329 324 14 315 322 341 298 298 270 303 341 347 25 25 337 309 308 296 32 360 342 304 311 60 86 52 357 347 343 337 336 344 32 32 13 19 355
330 331 332 333 335 336 339 340 335 286 253 205 180 217 205 259 164 160 176 179 51 329 129 265 278 301 338 320 296 293 276 284 301 137 181 195 189 216 106 22 19 357 27 352 316 329 356 335 345 342 6 49 332 279 348 331 328 314 310 8 3 16 25 356 340 330 314 33 359 2 340 310 315 316 342 359 359 341 333 325 331 335 338 22 38 343 15
331 332 333 332 335 338 345 347 346 349 229 211 226 250 244 238 206 196 226 78 53 217 291 287 303 294 302 255 324 357 339 348 341 90 104 63 60 60 47 37 43 29 360 34 6 357 348 2 343 324 17 351 337 323 334 269 284 322 343 5 12 28 2 359 335 316 290 316 322 298 301 290 277 290 307 329 333 356 322 320 313 315 313 333 16 9 355
332 332 330 330 333 344 357 15 23 31 84 72 341 269 259 234 197 199 217 219 123 11 282 267 277 319 12 322 307 25 37 40 50 57 59 53 55 53 52 50 41 347 4 44 40 18 5 298 300 4 1 318 278 302 333 4 356 304 302 327 351 344 335 319 297 292 272 278 297 304 292 276 285 291 294 300 308 321 312 298 300 303 311 343 17 3 3
329 330 328 329 334 348 8 35 60 59 79 74 295 246 50 345 170 196 211 159 142 120 349 329 341 273 312 289 19 20 30 53 63 60 62 78 80 74 75 68 34 5 77 79 50 44 302 317 344 332 334 339 347 303 318 343 314 275 291 339 333 323 320 312 302 291 289 290 282 278 274 272 270 277 284 285 285 290 276 279 284 285 312 331 10 357 348
325 325 325 328 331 349 15 27 37 81 115 103 10 324 31 17 291 267 156 141 141 102 215 230 244 290 314 308 30 2 6 25 28 39 44 44 51 55 55 98 61 15 74 5 41 280 310 12 312 314 310 346 352 336 350 333 322 302 345 336 325 325 320 312 305 291 285 283 275 269 267 266 267 275 271 265 263 246 243 245 294 318 330 345 335 332 340
320 317 319 325 322 344 33 23 360 340 152 127 180 154 193 196 215 230 147 140 107 74 39 329 327 343 330 319 345 335 1 19 21 28 32 347 40 15 44 37 108 40 50 86 67 46 27 287 273 298 327 323 339 0 341 336 330 327 326 324 322 315 310 304 302 298 288 280 283 286 272 256 229 223 251 252 237 226 220 225 285 302 343 335 297 296 264
311 315 317 317 310 331 58 30 4 31 69 221 150 88 45 47 63 137 129 89 64 233 242 333 214 252 308 313 294 323 351 346 11 3 27 348 41 350 41 5 16 41 354 68 20 96 265 253 271 306 264 310 14 352 338 339 328 320 319 316 313 305 303 296 292 288 281 274 244 245 261 266 186 189 237 271 277 293 292 286 269 275 301 319 308 310 332
307 308 317 314 298 278 91 43 32 30 30 20 340 303 332 1 24 22 45 117 189 250 98 92 345 353 279 289 35 309 356 48 320 342 28 348 346 44 31 15 339 60 332 62 258 126 285 182 13 262 184 64 155 220 19 326 329 319 309 302 311 315 312 308 305 303 295 278 251 237 248 262 266 254 251 254 267 266 263 256 261 266 252 241 248 258 256
305 303 305 307 281 256 261 171 90 126 197 222 173 249 169 120 118 43 58 103 49 354 360 297 149 1 338 348 48 289 267 72 10 331 80 307 351 38 334 57 333 54 302 226 5 32 350 17 294 22 352 280 210 41 329 320 319 329 339 337 335 326 329 332 331 324 312 295 271 251 250 249 254 255 245 243 239 245 248 249 246 247 248 224 219 229 225
302 301 299 283 283 270 313 108 107 134 264 208 217 178 149 128 242 94 60 35 130 148 21 275 42 280 190 359 313 284 71 45 241 17 86 191 346 339 23 90 39 324 281 13 7 339 31 319 15 2 308 16 17 279 297 303 326 345 345 344 344 341 333 322 318 314 303 300 276 258 238 232 239 250 235 230 235 232 232 241 236 227 239 226 206 212 200
288 289 301 285 310 43 293 242 160 169 221 159 138 135 127 149 217 65 78 59 355 87 161 194 35 276 158 230 247 279 21 346 48 64 329 70 243 274 31 20 81 221 58 338 338 359 6 3 64 346 344 5 320 281 296 313 340 347 346 342 345 345 343 340 337 334 338 352 343 269 248 244 245 245 226 233 238 234 232 234 231 227 231 232 224 203 205
217 170 37 56 36 344 299 270 189 186 118 117 129 101 313 212 55 320 2 15 224 124 297 100 222 245 38 76 322 246 27 271 99 112 316 240 42 314 303 92 204 192 18 331 317 86 101 33 63 31 307 273 271 272 277 309 327 339 341 339 343 346 346 346 348 352 355 357 359 343 294 261 259 248 238 237 218 228 233 240 237 221 220 220 207 191 171
125 104 54 359 98 266 209 237 153 135 109 133 9 64 53 312 56 357 283 201 103 312 222 136 250 205 158 194 272 283 135 260 318 285 307 262 101 312 109 61 277 125 340 5 303 151 1 10 64 39 346 334 348 342 337 318 319 331 339 343 346 348 347 348 353 357 359 0 346 347 5 348 301 289 250 238 240 233 232 232 236 229 222 214 205 193 181
41 66 187 161 214 227 93 85 134 117 49 25 320 98 128 144 90 275 192 11 340 265 125 283 229 213 170 157 131 304 225 78 346 298 281 305 106 133 259 295 272 86 355 38 253 120 94 16 337 11 349 343 334 322 333 328 332 340 349 354 347 349 349 350 352 355 2 5 2 2 7 7 13 9 356 325 257 240 235 232 229 226 218 217 199 176 172
224 246 272 240 267 137 155 140 73 47 92 91 312 309 113 325 230 203 103 343 221 251 196 211 328 333 241 112 128 201 318 60 333 310 157 209 254 49 64 37 33 73 322 291 267 95 85 86 6 8 337 321 316 318 328 337 343 345 351 349 353 355 356 357 357 360 3 6 6 7 9 12 13 11 6 357 344 325 275 235 224 221 204 193 186 173 167
145 183 238 310 290 91 85 56 159 213 264 190 85 292 235 200 34 6 129 112 274 281 284 169 265 216 250 160 206 126 276 196 167 196 55 340 347 118 229 121 357 105 65 245 147 63 74 40 331 325 317 318 313 324 339 343 343 350 357 354 353 354 1 3 1 3 3 6 10 11 10 13 15 12 5 4 1 1 7 359 11 33 189 207 181 162 154
324 81 136 155 175 200 160 358 263 138 98 342 38 354 360 33 262 208 279 276 327 129 257 115 230 150 136 73 358 259 204 213 113 91 71 243 21 60 137 293 82 33 258 258 70 52 41 342 331 334 324 314 317 329 338 339 326 331 353 355 358 357 2 8 9 6 4 7 10 13 13 16 16 13 12 12 14 18 19 18 26 30 22 43 57 96 105
166 124 63 175 48 290 116 327 228 13 344 73 97 16 352 2 324 354 360 290 222 297 242 197 257 105 287 221 167 214 60 332 167 86 264 248 84 211 97 50 92 243 345 41 46 56 329 68 9 335 319 318 322 330 337 337 340 339 358 358 360 4 7 12 13 12 11 7 9 11 17 20 18 18 16 16 15 15 15 25 36 60 59 57 50 40 43
99 357 29 24 348 261 54 315 322 95 17 325 62 28 355 11 305 332 342 266 145 245 268 172 148 141 203 252 34 300 121 208 80 93 254 154 343 329 80 282 262 77 76 222 320 39 47 359 337 323 329 328 321 324 332 336 342 356 357 4 9 12 11 15 17 18 14 12 11 12 19 18 21 20 19 19 21 24 26 19 17 59 63 62 59 55 38
126 187 91 59 319 305 115 282 354 27 341 56 14 326 356 296 264 297 265 165 233 288 300 254 194 175 207 217 148 220 135 117 74 232 192 132 102 15 333 32 48 47 16 33 17 4 36 330 324 329 317 314 316 328 336 336 340 356 21 22 9 14 13 18 23 25 20 17 16 18 19 19 20 21 21 21 26 26 25 25 26 47 64 61 60 62 56
360 339 97 125 94 275 90 50 12 360 236 269 348 16 4 305 276 279 276 305 309 299 306 292 151 177 160 175 116 347 91 117 108 280 65 42 114 77 48 77 25 6 9 323 335 347 306 299 314 311 317 315 336 342 341 341 343 359 26 25 21 18 18 23 23 26 24 21 22 22 19 19 22 21 23 29 30 28 26 28 30 40 55 62 59 58 56
263 245 89 85 245 221 45 303 150 57 18 108 46 13 348 360 17 341 316 304 287 341 343 358 9 350 353 307 81 157 182 177 48 338 354 333 8 40 19 37 30 19 17 319 330 241 271 294 301 308 311 335 342 344 344 344 345 351 11 34 25 24 27 29 29 27 26 30 28 27 22 19 21 25 28 32 36 34 30 29 32 38 48 56 57 54 53
177 130 148 202 217 123 197 244 77 72 318 350 42 47 8 6 323 303 295 320 346 338 291 44 359 69 324 278 72 30 12 323 68 312 8 19 56 11 347 73 317 320 1 353 297 319 309 321 293 286 332 352 347 345 340 340 344 351 1 24 30 32 30 37 38 30 27 31 34 35 32 28 23 23 29 33 34 35 38 34 33 40 43 54 60 58 53
47 335 357 40 8 320 203 85 68 38 328 338 6 1 351 350 330 307 306 356 328 329 347 6 10 87 267 69 5 352 55 350 93 36 55 33 41 360 4 68 58 296 291 314 337 343 315 287 283 344 350 343 348 346 343 341 342 349 354 11 13 11 43 43 46 38 35 37 46 52 48 40 30 28 28 30 32 33 37 44 41 39 42 47 55 59 57
340 131 231 185 175 244 124 36 314 295 328 313 296 309 354 323 301 294 285 321 351 25 27 3 292 74 14 13 33 37 323 75 60 57 126 146 295 78 164 251 267 244 246 251 242 267 271 283 344 345 338 335 344 347 345 338 341 344 349 356 16 9 31 36 47 53 47 39 40 52 53 47 41 38 33 30 35 45 48 43 46 47 45 47 53 61 64
43 23 294 289 324 147 144 164 97 146 179 207 196 277 90 14 305 296 296 67 57 59 348 304 39 27 50 38 294 269 346 46 53 48 41 317 224 133 206 205 222 234 233 251 257 231 251 286 335 341 317 315 340 343 342 345 353 352 355 352 2 29 44 25 29 44 54 43 34 48 64 62 54 52 52 47 46 49 53 49 41 46 51 52 53 56 60